Retour au catalogue

STARLINK-37872

ActifCommunicationsSSO
NORAD 69433·PAYLOAD·🇺🇸 United States

Lancé Jun 7, 2026 depuis Vandenberg Space Force Base

Loading…

Prochains Passages (prochaines 24 heures)

TLE

FraisSource: CelesTrak SupGP

Époque: Sep 15, 2026, 02:59 UTC

1 69433C 26126P   26258.12479167  .00014075  00000+0  43678-3 0  2587
2 69433  97.2850 119.4156 0002393  95.3393 109.3869 15.33440493    17

Suivez STARLINK-37872 en temps réel avec AllMySat

Download on the App Store